sat.trackr.live / text

‹ back to catalog

TRANSPORTER-17 OBJECT AU

NORAD 69911 · 2026-156AU

PAYLOAD ACTIVE UNKNOWN

§ Identity

Operator
Country
TBD
Launch date
2026-07-07
Launch site
AFWTR
Launch vehicle
Mass (kg)
RCS (m²)

External: N2YO · Heavens-Above · Gunter

§ Orbital elements

Epoch: 2026-09-19T23:32:53.282400Z

Period
96.59 min
Inclination
97.7453°
Eccentricity
0.0000762
Mean motion
14.90828482 rev/d
Perigee alt
594.8 km
Apogee alt
595.9 km
Semi-major
6,973.5 km
B*
8.3792e-5
RAAN
162.0688°
Arg perigee
207.2042°
Mean anomaly
152.9137°
Rev number
1,112

§ Raw data

TRANSPORTER-17 OBJECT AU1 69911U 26156AU  26262.98117225  .00000770  00000+0  83792-4 0  99952 69911  97.7453 162.0688 0000762 207.2042 152.9137 14.90828482 11125

JSON: /api/v1/satellites/69911 · /tle

For live sub-satellite position, see the globe view (requires WebGL).

§ Visibility from observer

Set your observer location to see the next 7 days of passes ≥ 10°. The values pass through the URL so the page stays shareable.

No JS? Fill the form by hand. The geolocation button needs JavaScript.